FW6437 Weather Reports


time (UTC)temp
C
wind
direction
speed
KPH
gust
KPH
rain 1hr
cm
rain 24hr
cm
rain mn
cm
humidity
%
barometer
mb
20260504081705 11 312 1.6 8.0 0.00 0.05 0.00 49 1016.8
20260504080705 11 342 3.2 9.7 0.00 0.05 0.00 48 1016.9
20260504080205 11 336 1.6 11.3 0.00 0.05 0.00 49 1016.8
20260504070205 12 314 4.8 14.5 0.00 0.05 0.00 47 1017.1
20260504060204 10 304 6.4 12.9 0.00 0.05 0.00 53 1017.3
20260504050705 10 291 3.2 8.0 0.00 0.05 0.00 63 1017.4
20260504050205 9 343 0.0 0.0 0.00 0.05 0.00 66 1017.3
20260504045706 9 343 0.0 0.0 0.00 0.05 0.00 67 1017.2
20260504044705 10 343 0.0 0.0 0.00 0.05 0.00 65 1017.1
20260504044205 10 343 0.0 0.0 0.00 0.05 0.00 65 1017.1
20260504043705 9 343 0.0 9.7 0.00 0.05 0.00 65 1016.9
20260504043205 9 343 3.2 9.7 0.00 0.05 0.00 64 1016.9
20260504042705 9 248 0.0 4.8 0.00 0.05 0.00 66 1016.9
20260504042205 9 59 0.0 0.0 0.00 0.05 0.00 65 1016.9
20260504041204 8 59 0.0 0.0 0.00 0.05 0.00 61 1016.9
20260504040704 8 59 0.0 0.0 0.00 0.05 0.00 64 1016.9
20260504040205 8 59 0.0 0.0 0.00 0.05 0.00 64 1017.0
20260504035204 8 59 0.0 0.0 0.00 0.05 0.05 68 1016.9
20260504034205 8 59 0.0 0.0 0.00 0.05 0.05 65 1016.9
20260504033705 8 59 0.0 0.0 0.00 0.05 0.05 65 1017.0
20260504032705 8 59 0.0 0.0 0.00 0.05 0.05 63 1017.0
20260504032205 8 59 0.0 0.0 0.00 0.05 0.05 65 1017.0
20260504031205 8 59 0.0 0.0 0.00 0.05 0.05 62 1017.0
20260504030705 8 59 0.0 0.0 0.00 0.05 0.05 62 1017.0
20260504030204 8 59 0.0 0.0 0.00 0.05 0.05 65 1017.0
20260504025705 8 59 0.0 0.0 0.00 0.05 0.05 66 1017.0
20260504024704 8 59 0.0 0.0 0.00 0.05 0.05 65 1017.0
20260504023705 9 59 0.0 0.0 0.00 0.05 0.05 61 1017.0
20260504022705 10 59 0.0 3.2 0.00 0.05 0.05 59 1017.0
20260504022205 10 66 0.0 0.0 0.00 0.05 0.05 56 1016.9
20260504021205 10 66 1.6 3.2 0.00 0.05 0.05 54 1016.7
20260504020704 10 112 0.0 0.0 0.00 0.05 0.05 53 1016.7
20260504020204 10 112 0.0 0.0 0.00 0.05 0.05 52 1016.5
20260504015705 10 112 0.0 0.0 0.00 0.05 0.05 53 1016.4
20260504015205 10 112 0.0 0.0 0.00 0.05 0.05 53 1016.5
20260504014705 10 112 0.0 0.0 0.00 0.05 0.05 54 1016.5
20260504014205 10 112 0.0 0.0 0.00 0.05 0.05 52 1016.4
20260504013704 10 112 0.0 0.0 0.00 0.05 0.05 53 1016.3
20260504013205 11 112 0.0 4.8 0.00 0.05 0.05 52 1016.1
20260504012705 11 112 1.6 4.8 0.00 0.05 0.05 52 1016.2
20260504012205 11 116 0.0 4.8 0.00 0.05 0.05 50 1016.0
20260504011706 11 138 0.0 0.0 0.00 0.05 0.05 48 1016.0
20260504011206 11 138 0.0 0.0 0.00 0.05 0.05 48 1015.9
20260504005705 12 138 0.0 8.0 0.00 0.05 0.05 46 1015.8
20260504005205 12 171 1.6 8.0 0.00 0.05 0.05 44 1015.8
20260504004706 12 89 0.0 4.8 0.00 0.05 0.05 43 1015.7
20260504004205 13 289 0.0 0.0 0.00 0.05 0.05 41 1015.6
20260504003704 13 289 0.0 0.0 0.00 0.05 0.05 40 1015.6
20260504002706 14 289 0.0 0.0 0.00 0.05 0.05 35 1015.5
20260504001704 15 289 0.0 0.0 0.00 0.05 0.05 33 1015.6
20260504001205 15 289 0.0 0.0 0.00 0.05 0.05 29 1015.6
20260504000705 16 289 0.0 0.0 0.00 0.05 0.05 27 1015.6
20260504000205 17 289 0.0 8.0 0.00 0.05 0.05 27 1015.6
20260503235705 17 289 0.0 8.0 0.00 0.05 0.05 24 1015.5
20260503235205 17 293 3.2 9.7 0.00 0.05 0.05 21 1015.6
20260503234704 17 222 3.2 14.5 0.00 0.05 0.05 22 1015.5
20260503234204 17 257 4.8 14.5 0.00 0.05 0.05 21 1015.5
20260503233705 17 291 8.0 16.1 0.00 0.05 0.05 20 1015.6
20260503233204 17 277 4.8 16.1 0.00 0.05 0.05 20 1015.5
20260503232705 18 284 8.0 14.5 0.00 0.05 0.05 18 1015.5
20260503232205 18 290 8.0 12.9 0.00 0.05 0.05 18 1015.5
20260503231705 18 303 8.0 19.3 0.00 0.05 0.05 18 1015.5
20260503231205 18 266 9.7 19.3 0.00 0.05 0.05 17 1015.4
20260503230205 18 261 11.3 22.5 0.00 0.05 0.05 17 1015.3
20260503225205 18 288 4.8 22.5 0.00 0.05 0.05 19 1015.3
20260503224204 18 253 12.9 24.1 0.00 0.05 0.05 16 1015.4
20260503223705 18 282 11.3 24.1 0.00 0.05 0.05 18 1015.5
20260503223205 18 263 14.5 24.1 0.00 0.05 0.05 16 1015.5
20260503222705 18 324 4.8 16.1 0.00 0.05 0.05 20 1015.4
20260503222205 18 260 4.8 19.3 0.00 0.05 0.05 18 1015.5
20260503221705 18 338 11.3 19.3 0.00 0.05 0.05 18 1015.5
20260503221205 18 288 8.0 14.5 0.00 0.05 0.05 22 1015.5
20260503220705 18 318 4.8 16.1 0.00 0.05 0.05 20 1015.6
20260503220205 18 313 9.7 19.3 0.00 0.05 0.05 20 1015.6
20260503215704 18 315 9.7 19.3 0.00 0.05 0.05 17 1015.7
20260503215204 18 308 11.3 16.1 0.00 0.05 0.05 19 1015.7
20260503214706 18 233 4.8 16.1 0.00 0.05 0.05 19 1015.8
20260503214206 18 297 3.2 24.1 0.00 0.05 0.05 19 1015.8
20260503213705 18 321 9.7 24.1 0.00 0.05 0.05 22 1015.9
20260503213205 18 297 9.7 20.9 0.00 0.05 0.05 19 1015.9
20260503212705 19 314 11.3 19.3 0.00 0.05 0.05 19 1015.8
20260503211205 18 194 8.0 20.9 0.00 0.05 0.05 21 1016.0
20260503210205 18 236 8.0 19.3 0.00 0.05 0.05 19 1016.0
20260503205705 18 277 4.8 24.1 0.00 0.05 0.05 20 1016.0
20260503205205 18 230 11.3 24.1 0.00 0.05 0.05 19 1016.1
20260503204705 18 340 1.6 19.3 0.00 0.05 0.05 22 1016.0
20260503204205 17 210 8.0 20.9 0.00 0.05 0.05 21 1016.2
20260503203704 18 263 11.3 22.5 0.00 0.05 0.05 20 1016.3
20260503203205 17 317 8.0 22.5 0.00 0.05 0.05 23 1016.2
20260503202704 17 282 8.0 22.5 0.00 0.05 0.05 22 1016.2
20260503202204 17 334 9.7 22.5 0.00 0.05 0.05 21 1016.3
20260503201705 17 337 9.7 16.1 0.00 0.05 0.05 21 1016.3
20260503201205 17 306 8.0 19.3 0.00 0.05 0.05 22 1016.5
20260503200704 17 310 3.2 19.3 0.00 0.05 0.05 20 1016.5
20260503200205 17 315 11.3 19.3 0.00 0.05 0.05 22 1016.8
20260503195704 17 245 9.7 19.3 0.00 0.05 0.05 23 1016.8
20260503195205 17 299 11.3 20.9 0.00 0.05 0.05 22 1016.9
20260503194705 17 292 11.3 22.5 0.00 0.05 0.05 21 1017.1
20260503194205 17 262 11.3 25.7 0.00 0.05 0.05 22 1017.1
20260503193704 17 240 11.3 25.7 0.00 0.05 0.05 23 1017.2
20260503193205 16 332 11.3 22.5 0.00 0.05 0.05 24 1017.1
20260503192705 16 314 11.3 22.5 0.00 0.05 0.05 23 1017.2
20260503192205 16 330 14.5 22.5 0.00 0.05 0.05 23 1017.3
20260503191705 16 288 8.0 22.5 0.00 0.05 0.05 24 1017.3
20260503191204 16 345 11.3 27.4 0.00 0.05 0.05 29 1017.3
20260503190704 16 322 11.3 27.4 0.00 0.05 0.05 23 1017.4
20260503190205 17 208 6.4 19.3 0.00 0.05 0.05 26 1017.5
20260503185705 16 250 6.4 24.1 0.00 0.05 0.05 25 1017.7
20260503184204 16 18 8.0 25.7 0.00 0.05 0.05 27 1018.0
20260503183705 15 308 11.3 25.7 0.00 0.05 0.05 26 1018.0
20260503183205 15 336 14.5 24.1 0.00 0.05 0.05 29 1018.2
20260503182705 15 309 14.5 24.1 0.00 0.05 0.05 27 1018.2
20260503182204 15 332 8.0 22.5 0.00 0.05 0.05 27 1018.3
20260503181705 15 293 11.3 22.5 0.00 0.05 0.05 26 1018.4
20260503181205 15 323 14.5 22.5 0.00 0.05 0.05 28 1018.4
20260503180705 15 284 6.4 20.9 0.00 0.05 0.05 29 1018.4
20260503180205 15 319 8.0 25.7 0.00 0.05 0.05 30 1018.5
20260503175704 14 321 17.7 25.7 0.00 0.05 0.05 27 1018.6
20260503175205 15 312 8.0 22.5 0.00 0.05 0.05 32 1018.6
20260503174705 14 295 11.3 22.5 0.00 0.05 0.05 29 1018.8
20260503173704 14 299 11.3 24.1 0.00 0.05 0.05 31 1018.9
20260503173204 14 305 9.7 25.7 0.00 0.05 0.05 34 1018.9
20260503172705 15 4 14.5 27.4 0.00 0.05 0.05 30 1018.9
20260503172205 14 303 4.8 27.4 0.00 0.05 0.05 31 1019.1
20260503171705 13 305 17.7 27.4 0.00 0.05 0.05 30 1019.3
20260503171205 14 256 11.3 22.5 0.03 0.05 0.05 30 1019.3
20260503170705 13 290 8.0 24.1 0.03 0.05 0.05 32 1019.5
20260503170205 13 249 12.9 24.1 0.03 0.05 0.05 32 1019.5
20260503150704 11 283 4.8 19.3 0.00 0.00 0.00 41 1020.3
20260503150205 11 351 8.0 19.3 0.00 0.00 0.00 43 1020.3
20260503140205 10 318 9.7 16.1 0.00 0.00 0.00 43 1020.5
20260503131205 8 351 9.7 25.7 0.00 0.00 0.00 47 1020.4
20260503130205 8 330 12.9 33.8 0.00 0.00 0.00 47 1020.3
20260503120205 6 309 9.7 19.3 0.00 0.00 0.00 58 1019.9
20260503110705 4 146 0.0 3.2 0.00 0.00 0.00 74 1019.2
20260503110204 3 145 0.0 0.0 0.00 0.00 0.00 77 1019.2
20260503100205 3 145 0.0 8.0 0.00 0.00 0.00 82 1018.3